Bellingham, WA
on Monday, February 25, 2013

Monday
Previous Day Next Day
Daily Summary
 ActualAverageRecord
Temperature
Mean Temperature °F 42°F  
Max Temperature 52°F 49°F 62°F (1992)
Min Temperature 44°F 34°F 16°F (2011)
Degree Days
Heating Degree Days 17 23  
Month to date heating degree days 610  
Cooling Degree Days 0 0  
Month to date cooling degree days 0  
Year to date cooling degree days 0  
Moisture
Dew Point 37°F   
Average Humidity 68    
Maximum Humidity 77    
Minimum Humidity 45    
Precipitation
Precipitation 0.19 in 0.10 in 1.22 in (1963)
Month to date precipitation 2.71  
Year to date precipitation 7.38  
Wind
Wind Speed 15 mph   
Max Wind Speed 24 mph   
Max Gust Speed 38 mph   
Visibility 10 miles   
Events Rain   

Key: T is trace of precipitation, MM is missing value
Source: NWS Daily Summary
Time(PST)TemperatureDew PointHumidity Pressure Visibility Wind DirectionWind SpeedGust SpeedPrecipitationEvents Conditions
12:53 AM 48.9°F 36.0°F 61% 29.84 in 10.0 miles SSE 19.6 mph 36.8 mph N/A   Overcast
1:15 AM 48.2°F 35.6°F 62% 29.83 in 10.0 miles SSE 24.2 mph 38.0 mph N/A   Overcast
1:53 AM 46.9°F 37.9°F 71% 29.85 in 10.0 miles SSE 20.7 mph 36.8 mph 0.00 in Rain Light Rain
2:53 AM 46.0°F 39.0°F 76% 29.85 in 10.0 miles SSE 20.7 mph 33.4 mph 0.03 in Rain Light Rain
3:53 AM 46.0°F 37.9°F 73% 29.83 in 10.0 miles SSE 21.9 mph 31.1 mph 0.02 in   Mostly Cloudy
4:53 AM 46.9°F 37.9°F 71% 29.87 in 10.0 miles SSE 17.3 mph 26.5 mph N/A   Overcast
5:53 AM 46.9°F 39.0°F 74% 29.89 in 9.0 miles SSE 17.3 mph 27.6 mph 0.00 in Rain Light Rain
6:53 AM 46.0°F 39.0°F 76% 29.87 in 10.0 miles SSE 12.7 mph 27.6 mph 0.00 in Rain Light Rain
7:16 AM 46.4°F 39.2°F 76% 29.84 in 10.0 miles SSE 17.3 mph 25.3 mph 0.00 in Rain Light Rain
7:23 AM 46.4°F 39.2°F 76% 29.84 in 10.0 miles South 15.0 mph 25.3 mph 0.00 in Rain Light Rain
7:30 AM 46.4°F 39.2°F 76% 29.84 in 10.0 miles SSE 20.7 mph 28.8 mph 0.00 in Rain Light Rain
7:53 AM 46.9°F 37.9°F 71% 29.85 in 10.0 miles South 17.3 mph 35.7 mph 0.00 in   Overcast
8:53 AM 46.9°F 37.9°F 71% 29.87 in 6.0 miles SSW 17.3 mph 25.3 mph 0.08 in Rain Light Rain
9:29 AM 46.4°F 37.4°F 71% 29.87 in 10.0 miles SSW 10.4 mph 16.1 mph 0.00 in Rain Light Rain
9:53 AM 48.0°F 37.9°F 68% 29.91 in 10.0 miles SSW 11.5 mph 24.2 mph 0.00 in   Overcast
10:53 AM 46.9°F 39.0°F 74% 29.95 in 3.0 miles Variable 6.9 mph - 0.04 in Rain Light Rain
11:53 AM 48.9°F 36.0°F 61% 29.99 in 10.0 miles Variable 4.6 mph - 0.01 in   Overcast
12:53 PM 52.0°F 34.0°F 50% 30.01 in 10.0 miles SW 11.5 mph 18.4 mph N/A   Overcast
1:53 PM 52.0°F 32.0°F 47% 30.04 in 10.0 miles SSW 8.1 mph 18.4 mph N/A   Overcast
2:53 PM 52.0°F 30.9°F 45% 30.06 in 10.0 miles Variable 6.9 mph - N/A   Overcast
3:53 PM 51.1°F 37.0°F 59% 30.10 in 10.0 miles West 9.2 mph - 0.00 in   Overcast
4:53 PM 48.9°F 37.0°F 64% 30.12 in 8.0 miles Calm Calm - 0.00 in Rain Light Rain
5:53 PM 46.9°F 39.9°F 77% 30.14 in 10.0 miles South 3.5 mph - 0.00 in   Overcast
6:53 PM 46.4°F 37.4°F 71% 30.15 in 10.0 miles SSE 4.6 mph - N/A   Overcast
7:53 PM 46.9°F 37.0°F 68% 30.21 in 10.0 miles SSE 3.5 mph - 0.01 in   Overcast
8:53 PM 46.9°F 36.0°F 66% 30.24 in 10.0 miles SSE 5.8 mph - N/A   Overcast
9:53 PM 46.9°F 35.1°F 63% 30.26 in 10.0 miles Calm Calm - N/A   Overcast
10:53 PM 44.1°F 36.0°F 73% 30.27 in 10.0 miles SE 3.5 mph - N/A   Overcast
11:53 PM 44.1°F 36.0°F 73% 30.29 in 10.0 miles SSE 3.5 mph - N/A   Clear
Moon Phase
Feb. 25 Feb. 25 Mar. 04 Mar. 11 Mar. 19
Sunrise:06:59 AM (PST) Moon Rise:06:13 PM (PST)2/25
Sunset:05:47 PM (PST) Moon Set:06:28 AM (PST)2/25

Copyright © 2014 The Weather Underground, Inc.